| time (UTC) | temp F | wind direction | speed knots | gust knots | rain 1hr in | rain 24hr in | rain mn in | humidity % | barometer mb |
| 20260506111546 | 0 | 0.0 | 0.0 | 0.00 | 0.98 | 0.39 | 1006.9 | ||
| 20260506110042 | 0 | 0.0 | 0.0 | 0.00 | 0.98 | 0.39 | 1006.7 | ||
| 20260506104540 | 0 | 0.0 | 0.0 | 0.00 | 0.98 | 0.39 | 1005.8 | ||
| 20260506103044 | 0 | 0.0 | 0.0 | 0.00 | 0.98 | 0.39 | 1005.2 | ||
| 20260506101528 | 0 | 0.0 | 0.0 | 0.00 | 0.98 | 0.39 | 1005.1 | ||
| 20260506100027 | 0 | 0.0 | 0.0 | 0.00 | 0.98 | 0.39 | 1005.7 | ||
| 20260506094521 | 0 | 0.0 | 0.0 | 0.00 | 0.98 | 0.39 | 1006.3 | ||
| 20260506093017 | 0 | 0.0 | 0.0 | 0.00 | 0.98 | 0.39 | 1005.9 | ||
| 20260506091516 | 0 | 0.0 | 0.0 | 0.00 | 0.98 | 0.39 | 1006.1 | ||
| 20260506090015 | 0 | 0.0 | 0.0 | 0.03 | 0.98 | 0.39 | 1005.8 | ||
| 20260506084502 | 0 | 0.0 | 0.0 | 0.06 | 0.98 | 0.39 | 1005.8 | ||
| 20260506083100 | 0 | 0.0 | 0.0 | 0.09 | 0.98 | 0.39 | 1005.7 | ||
| 20260506081601 | 45 | 319 | 0.9 | 6.1 | 0.12 | 0.98 | 0.39 | 100 | 1005.7 |
| 20260506073056 | 46 | 360 | 0.0 | 2.6 | 0.09 | 0.89 | 0.30 | 96 | 1005.1 |
| 20260506071548 | 46 | 330 | 0.0 | 0.0 | 0.08 | 0.86 | 0.27 | 96 | 1005.0 |
| 20260506061552 | 48 | 63 | 0.0 | 1.7 | 0.09 | 0.77 | 0.18 | 96 | 1005.4 |
| 20260506044530 | 49 | 319 | 0.0 | 2.6 | 0.08 | 0.65 | 0.06 | 96 | 1006.1 |
| 20260506043036 | 49 | 340 | 0.0 | 2.6 | 0.07 | 0.63 | 0.04 | 96 | 1006.3 |
| 20260506041526 | 49 | 338 | 0.0 | 1.7 | 0.06 | 0.61 | 0.02 | 96 | 1006.2 |
| 20260506040021 | 49 | 333 | 0.0 | 1.7 | 0.06 | 0.59 | 0.00 | 96 | 1006.2 |
| 20260506034521 | 49 | 333 | 0.0 | 1.7 | 0.06 | 0.56 | 0.56 | 96 | 1006.2 |
| 20260506033020 | 49 | 359 | 0.0 | 2.6 | 0.10 | 0.56 | 0.56 | 95 | 1006.4 |
| 20260506031517 | 49 | 50 | 0.0 | 0.9 | 0.19 | 0.55 | 0.55 | 95 | 1006.5 |
| 20260506030035 | 50 | 94 | 0.0 | 1.7 | 0.20 | 0.53 | 0.53 | 95 | 1007.0 |
| 20260506024532 | 50 | 75 | 0.0 | 0.0 | 0.20 | 0.51 | 0.51 | 95 | 1006.7 |
| 20260506023010 | 51 | 219 | 0.0 | 2.6 | 0.16 | 0.45 | 0.45 | 95 | 1006.5 |
| 20260506021508 | 52 | 260 | 0.0 | 3.5 | 0.08 | 0.36 | 0.36 | 95 | 1006.3 |
| 20260506020007 | 52 | 342 | 0.0 | 0.9 | 0.05 | 0.33 | 0.33 | 95 | 1005.9 |
| 20260506014507 | 52 | 312 | 0.0 | 1.7 | 0.04 | 0.31 | 0.31 | 95 | 1006.0 |
| 20260506013001 | 53 | 22 | 0.0 | 1.7 | 0.04 | 0.28 | 0.28 | 94 | 1005.7 |
| 20260506011512 | 54 | 316 | 0.9 | 2.6 | 0.03 | 0.28 | 0.28 | 94 | 1005.6 |
| 20260506010016 | 54 | 321 | 0.0 | 1.7 | 0.04 | 0.28 | 0.28 | 94 | 1005.4 |
| 20260506004555 | 55 | 27 | 0.0 | 3.5 | 0.06 | 0.27 | 0.27 | 94 | 1005.4 |
| 20260506003052 | 57 | 169 | 0.0 | 0.0 | 0.13 | 0.25 | 0.25 | 94 | 1005.3 |
| 20260506001553 | 57 | 169 | 0.0 | 0.0 | 0.23 | 0.25 | 0.25 | 94 | 1005.4 |
| 20260506000049 | 57 | 169 | 0.0 | 0.9 | 0.23 | 0.24 | 0.24 | 93 | 1005.4 |
| 20260505234553 | 57 | 336 | 0.0 | 2.6 | 0.20 | 0.21 | 0.21 | 92 | 1005.7 |
| 20260505233045 | 58 | 228 | 0.0 | 1.7 | 0.11 | 0.12 | 0.12 | 90 | 1006.0 |
| 20260505231559 | 59 | 269 | 0.0 | 0.0 | 0.01 | 0.02 | 0.02 | 88 | 1004.9 |
| 20260505230040 | 60 | 14 | 0.0 | 0.0 | 0.00 | 0.01 | 0.01 | 88 | 1004.8 |
| 20260505224538 | 60 | 351 | 0.0 | 0.0 | 0.00 | 0.01 | 0.01 | 87 | 1004.9 |
| 20260505223037 | 60 | 65 | 0.0 | 0.0 | 0.00 | 0.01 | 0.01 | 87 | 1005.1 |
| 20260505221537 | 61 | 295 | 0.0 | 0.0 | 0.00 | 0.01 | 0.01 | 86 | 1005.2 |
| 20260505220037 | 61 | 278 | 0.0 | 0.0 | 0.00 | 0.01 | 0.01 | 85 | 1005.3 |
| 20260505214553 | 62 | 32 | 0.0 | 0.0 | 0.00 | 0.01 | 0.01 | 85 | 1005.0 |
| 20260505213031 | 62 | 269 | 0.0 | 0.0 | 0.00 | 0.01 | 0.01 | 85 | 1005.1 |
| 20260505211533 | 62 | 238 | 0.0 | 3.5 | 0.01 | 0.01 | 0.01 | 84 | 1004.9 |
| 20260505210029 | 62 | 210 | 0.0 | 6.1 | 0.01 | 0.01 | 0.01 | 83 | 1005.0 |
| 20260505204534 | 62 | 243 | 0.0 | 2.6 | 0.01 | 0.01 | 0.01 | 84 | 1005.0 |
| 20260505203026 | 63 | 194 | 0.0 | 7.0 | 0.01 | 0.01 | 0.01 | 77 | 1005.3 |
| 20260505201525 | 66 | 114 | 2.6 | 11.3 | 0.00 | 0.00 | 0.00 | 68 | 1005.0 |
| 20260505200029 | 67 | 249 | 0.0 | 0.0 | 0.00 | 0.00 | 0.00 | 64 | 1004.9 |
| 20260505194523 | 68 | 271 | 0.9 | 8.7 | 0.00 | 0.00 | 0.00 | 63 | 1004.9 |
| 20260505193023 | 68 | 276 | 0.0 | 0.9 | 0.00 | 0.00 | 0.00 | 64 | 1005.2 |
| 20260505191522 | 67 | 20 | 0.0 | 0.0 | 0.00 | 0.00 | 0.00 | 66 | 1005.2 |
| 20260505190028 | 68 | 308 | 0.0 | 7.0 | 0.00 | 0.00 | 0.00 | 63 | 1005.7 |
| 20260505184522 | 67 | 208 | 0.0 | 6.1 | 0.00 | 0.00 | 0.00 | 64 | 1005.9 |
| 20260505183028 | 67 | 210 | 0.0 | 11.3 | 0.00 | 0.00 | 0.00 | 64 | 1006.1 |
| 20260505181520 | 67 | 252 | 4.3 | 13.9 | 0.00 | 0.00 | 0.00 | 63 | 1005.9 |
| 20260505180022 | 67 | 148 | 2.6 | 11.3 | 0.00 | 0.00 | 0.00 | 62 | 1005.6 |
| 20260505174517 | 68 | 177 | 0.0 | 13.0 | 0.00 | 0.00 | 0.00 | 61 | 1005.4 |
| 20260505173017 | 69 | 238 | 1.7 | 13.9 | 0.00 | 0.00 | 0.00 | 60 | 1005.2 |
| 20260505171516 | 70 | 233 | 0.0 | 7.8 | 0.00 | 0.00 | 0.00 | 59 | 1005.2 |
| 20260505170015 | 69 | 210 | 2.6 | 8.7 | 0.00 | 0.00 | 0.00 | 61 | 1005.4 |
| 20260505164514 | 69 | 297 | 2.6 | 16.5 | 0.00 | 0.00 | 0.00 | 60 | 1005.5 |
| 20260505163017 | 70 | 284 | 1.7 | 12.2 | 0.00 | 0.00 | 0.00 | 58 | 1005.4 |
| 20260505161513 | 71 | 219 | 2.6 | 14.8 | 0.00 | 0.00 | 0.00 | 60 | 1005.1 |
| 20260505153007 | 69 | 193 | 2.6 | 13.0 | 0.00 | 0.00 | 0.00 | 61 | 1005.0 |
| 20260505151506 | 69 | 301 | 0.9 | 11.3 | 0.00 | 0.00 | 0.00 | 62 | 1005.0 |
| 20260505140111 | 64 | 183 | 2.6 | 12.2 | 0.00 | 0.00 | 0.00 | 70 | 1004.9 |
| 20260505124547 | 61 | 225 | 3.5 | 7.8 | 0.00 | 0.00 | 0.00 | 74 | 1004.4 |
| 20260505123051 | 61 | 328 | 0.9 | 5.2 | 0.00 | 0.00 | 0.00 | 73 | 1004.3 |
| 20260505121545 | 61 | 141 | 0.0 | 0.9 | 0.00 | 0.00 | 0.00 | 73 | 1004.3 |
| 20260505120050 | 62 | 209 | 1.7 | 5.2 | 0.00 | 0.00 | 0.00 | 71 | 1004.4 |
| 20260505114551 | 62 | 217 | 0.0 | 6.1 | 0.00 | 0.00 | 0.00 | 71 | 1004.6 |
| 20260505113040 | 62 | 178 | 0.0 | 4.3 | 0.00 | 0.00 | 0.00 | 71 | 1004.4 |